Location: Be?chatów
(51.3665°N, 19.3745°E)
Time: 23:12:01
(UTC+00:00)

Cosmos 1805 Rocket - Pass Details

Date: 19 May 2025
Orbit: 600 x 623 km, 82.5° (Epoch: 16 June)

Event Time Altitude Azimuth Distance (km) Brightness Sun altitude
Rises 21:24:09 0° 354° (N) 2,919 8.6 -16.8°
Reaches altitude 10° 21:26:31 10° 2° (N) 2,007 7.3 -16.9°
Maximum altitude 21:30:42 40° 72° (ENE) 921 4.4 -17.1°
Enters shadow 21:32:38 26° 124° (SE) 1,229 4.7 -17.2°
